Tracking 29493 objects as of 8-Sep-2024
HD Live streaming from Space Station
objects crossing your sky now

SCOUT X-4 R/B

Track SCOUT X-4 R/B now!
10-day predictions


NORAD ID: 1739
Int'l Code: 1965-093B
Perigee: 661.5 km
Apogee: 781.1 km
Inclination: 59.7 °
Period: 99.1 minutes
Semi major axis: 7092 km
RCS: 0.5409 m2 (medium)
Launch date: November 19, 1965
Source: United States (US)
Launch site: WALLOPS ISLAND (WLPIS)

Note: This is a ROCKET BODY
Your satellite tracking list
Your tracking list is empty




NASA's NSSDC Master Catalog

Two Line Element Set (TLE):
1  1739U 65093B   24252.51253641  .00002469  00000-0  59918-3 0  9991
2  1739  59.7044 300.9811 0084302  21.4892 338.9656 14.53530986 97028
Source of the keplerian elements: AFSPC